When you browse on this site, cookies collect data to enhance your experience and personalize the content and advertising you see.
Visit our Privacy Policy to learn more. By continuing to use the site, you agree to this use of cookies and data.
  • En España
  • Lista de países
  • Para 7 días
  • Temperatura del agua
  • El tiempo en el mapa
  • Informadores
  • user-avatar
    Iniciar sesión

    Tiempo cada hora Balho

    Hoy, 14 Diciembre, Sábado

    Tiempo Temperatura Precipitaciones Viento Presión Humedad
    00:00 +28°C° 0 mm 3 mps 737 mmHg 66%
    01:00 +28°C° 0 mm 3 mps 737 mmHg 69%
    02:00 +27°C° 0 mm 3 mps 737 mmHg 71%
    03:00 +27°C° 0 mm 3 mps 736 mmHg 76%
    04:00 +26°C° 0 mm 3 mps 737 mmHg 76%
    05:00 +26°C° 0 mm 2 mps 737 mmHg 77%
    06:00 +26°C° 0 mm 2 mps 737 mmHg 77%
    07:00 +27°C° 0 mm 2 mps 738 mmHg 68%
    08:00 +28°C° 0 mm 2 mps 739 mmHg 59%
    09:00 +30°C° 0 mm 2 mps 740 mmHg 46%
    10:00 +32°C° 0 mm 2 mps 739 mmHg 39%
    11:00 +34°C° 0 mm 2 mps 739 mmHg 33%
    12:00 +36°C° 0 mm 2 mps 739 mmHg 26%
    13:00 +37°C° 0 mm 2 mps 738 mmHg 24%
    14:00 +37°C° 0 mm 3 mps 737 mmHg 22%
    15:00 +38°C° 0 mm 4 mps 737 mmHg 20%
    16:00 +37°C° 0 mm 4 mps 737 mmHg 23%
    17:00 +35°C° 0 mm 5 mps 737 mmHg 27%
    18:00 +34°C° 0 mm 6 mps 737 mmHg 30%
    19:00 +33°C° 0 mm 5 mps 737 mmHg 35%
    20:00 +32°C° 0 mm 4 mps 738 mmHg 40%
    21:00 +29°C° 0 mm 3 mps 738 mmHg 45%
    22:00 +29°C° 0 mm 3 mps 738 mmHg 50%
    23:00 +28°C° 0 mm 3 mps 738 mmHg 54%

    Mañana, 15 Diciembre, Domingo

    Tiempo Temperatura Precipitaciones Viento Presión Humedad
    00:00 +27°C° 0 mm 3 mps 738 mmHg 58%
    01:00 +27°C° 0 mm 2 mps 737 mmHg 63%
    02:00 +26°C° 0 mm 2 mps 737 mmHg 67%
    03:00 +25°C° 0 mm 2 mps 737 mmHg 72%
    04:00 +25°C° 0 mm 2 mps 737 mmHg 75%
    05:00 +25°C° 0 mm 2 mps 738 mmHg 78%
    06:00 +24°C° 0 mm 2 mps 738 mmHg 81%
    07:00 +26°C° 0 mm 2 mps 738 mmHg 72%
    08:00 +27°C° 0 mm 2 mps 739 mmHg 63%
    09:00 +29°C° 0 mm 3 mps 739 mmHg 54%
    10:00 +31°C° 0 mm 3 mps 739 mmHg 45%
    11:00 +34°C° 0 mm 3 mps 738 mmHg 35%
    12:00 +35°C° 0 mm 4 mps 738 mmHg 25%
    13:00 +36°C° 0 mm 4 mps 737 mmHg 23%
    14:00 +37°C° 0 mm 4 mps 736 mmHg 21%
    15:00 +37°C° 0 mm 5 mps 736 mmHg 19%
    16:00 +36°C° 0 mm 5 mps 736 mmHg 23%
    17:00 +34°C° 0 mm 6 mps 736 mmHg 27%
    18:00 +33°C° 0 mm 6 mps 736 mmHg 30%
    19:00 +32°C° 0 mm 5 mps 736 mmHg 37%
    20:00 +29°C° 0 mm 5 mps 737 mmHg 43%
    21:00 +28°C° 0 mm 4 mps 737 mmHg 49%
    22:00 +27°C° 0 mm 4 mps 737 mmHg 54%
    23:00 +27°C° 0 mm 3 mps 737 mmHg 58%

    Pasado mañana, 16 Diciembre, Lunes

    Tiempo Temperatura Precipitaciones Viento Presión Humedad
    00:00 +26°C° 0 mm 3 mps 737 mmHg 62%
    01:00 +26°C° 0 mm 3 mps 736 mmHg 65%
    02:00 +25°C° 0 mm 3 mps 736 mmHg 67%
    03:00 +25°C° 0 mm 3 mps 736 mmHg 70%
    04:00 +24°C° 0 mm 2 mps 736 mmHg 73%
    05:00 +24°C° 0 mm 2 mps 736 mmHg 77%
    06:00 +23°C° 0 mm 2 mps 736 mmHg 80%
    07:00 +25°C° 0 mm 2 mps 737 mmHg 73%
    08:00 +26°C° 0 mm 2 mps 738 mmHg 65%
    09:00 +27°C° 0 mm 2 mps 738 mmHg 58%
    10:00 +29°C° 0 mm 2 mps 738 mmHg 49%
    11:00 +31°C° 0 mm 2 mps 737 mmHg 41%
    12:00 +32°C° 0 mm 2 mps 737 mmHg 32%
    13:00 +34°C° 0 mm 2 mps 737 mmHg 29%
    14:00 +35°C° 0 mm 3 mps 736 mmHg 27%
    15:00 +36°C° 0 mm 3 mps 735 mmHg 24%
    16:00 +34°C° 0 mm 4 mps 735 mmHg 29%
    17:00 +33°C° 0 mm 5 mps 736 mmHg 33%
    18:00 +32°C° 0 mm 6 mps 736 mmHg 38%
    19:00 +30°C° 0 mm 5 mps 736 mmHg 43%
    20:00 +28°C° 0 mm 4 mps 736 mmHg 48%
    21:00 +27°C° 0 mm 3 mps 737 mmHg 53%
    22:00 +27°C° 0 mm 3 mps 737 mmHg 58%
    23:00 +26°C° 0 mm 3 mps 736 mmHg 62%

    17 Diciembre, Martes

    Tiempo Temperatura Precipitaciones Viento Presión Humedad
    00:00 +25°C° 0 mm 2 mps 736 mmHg 66%
    01:00 +25°C° 0 mm 2 mps 736 mmHg 69%
    02:00 +24°C° 0 mm 2 mps 736 mmHg 71%
    03:00 +24°C° 0 mm 2 mps 736 mmHg 74%
    04:00 +24°C° 0 mm 2 mps 736 mmHg 76%
    05:00 +23°C° 0 mm 1 mps 737 mmHg 78%
    06:00 +23°C° 0 mm 1 mps 737 mmHg 80%
    07:00 +24°C° 0 mm 1 mps 738 mmHg 74%
    08:00 +25°C° 0 mm 1 mps 738 mmHg 67%
    09:00 +27°C° 0 mm 1 mps 739 mmHg 60%
    10:00 +28°C° 0 mm 1 mps 739 mmHg 52%
    11:00 +30°C° 0 mm 1 mps 738 mmHg 44%
    12:00 +31°C° 0 mm 1 mps 738 mmHg 36%
    13:00 +32°C° 0 mm 1 mps 737 mmHg 32%
    14:00 +33°C° 0 mm 1 mps 737 mmHg 28%
    15:00 +34°C° 0 mm 1 mps 736 mmHg 24%
    16:00 +34°C° 0 mm 2 mps 736 mmHg 30%
    17:00 +33°C° 0 mm 3 mps 737 mmHg 35%
    18:00 +32°C° 0 mm 5 mps 737 mmHg 41%
    19:00 +30°C° 0 mm 4 mps 737 mmHg 47%
    20:00 +29°C° 0 mm 3 mps 738 mmHg 53%
    21:00 +28°C° 0 mm 3 mps 738 mmHg 59%
    22:00 +27°C° 0 mm 3 mps 738 mmHg 62%
    23:00 +27°C° 0 mm 2 mps 738 mmHg 65%

    18 Diciembre, Miércoles

    Tiempo Temperatura Precipitaciones Viento Presión Humedad
    00:00 +26°C° 0 mm 2 mps 738 mmHg 68%
    01:00 +25°C° 0 mm 2 mps 738 mmHg 71%
    02:00 +25°C° 0 mm 2 mps 737 mmHg 74%
    03:00 +24°C° 0 mm 2 mps 737 mmHg 77%
    04:00 +24°C° 0 mm 2 mps 738 mmHg 79%
    05:00 +24°C° 0 mm 1 mps 738 mmHg 81%
    06:00 +23°C° 0 mm 1 mps 738 mmHg 83%
    07:00 +25°C° 0 mm 1 mps 739 mmHg 75%
    08:00 +26°C° 0 mm 1 mps 740 mmHg 68%
    09:00 +27°C° 0 mm 1 mps 740 mmHg 61%
    10:00 +29°C° 0 mm 1 mps 740 mmHg 51%
    11:00 +30°C° 0 mm 1 mps 739 mmHg 42%
    12:00 +32°C° 0 mm 1 mps 739 mmHg 32%
    13:00 +33°C° 0 mm 1 mps 738 mmHg 29%
    14:00 +34°C° 0 mm 1 mps 738 mmHg 25%
    15:00 +36°C° 0 mm 2 mps 737 mmHg 22%
    16:00 +35°C° 0 mm 3 mps 737 mmHg 27%
    17:00 +33°C° 0 mm 4 mps 737 mmHg 32%
    18:00 +32°C° 0 mm 6 mps 737 mmHg 38%
    19:00 +30°C° 0 mm 5 mps 738 mmHg 43%
    20:00 +29°C° 0 mm 4 mps 738 mmHg 48%
    21:00 +28°C° 0 mm 4 mps 739 mmHg 53%
    22:00 +27°C° 0 mm 3 mps 738 mmHg 55%
    23:00 +26°C° 0 mm 3 mps 738 mmHg 57%

    19 Diciembre, Jueves

    Tiempo Temperatura Precipitaciones Viento Presión Humedad
    00:00 +26°C° 0 mm 3 mps 738 mmHg 58%
    01:00 +25°C° 0 mm 2 mps 738 mmHg 61%
    02:00 +25°C° 0 mm 2 mps 738 mmHg 64%
    03:00 +24°C° 0 mm 2 mps 738 mmHg 67%
    04:00 +24°C° 0 mm 2 mps 738 mmHg 71%
    05:00 +23°C° 0 mm 2 mps 738 mmHg 74%
    06:00 +23°C° 0 mm 1 mps 738 mmHg 78%
    07:00 +24°C° 0 mm 2 mps 739 mmHg 71%
    08:00 +26°C° 0 mm 2 mps 739 mmHg 64%
    09:00 +27°C° 0 mm 3 mps 740 mmHg 57%
    10:00 +29°C° 0 mm 3 mps 739 mmHg 50%
    11:00 +32°C° 0 mm 4 mps 739 mmHg 43%
    12:00 +34°C° 0 mm 4 mps 739 mmHg 36%
    13:00 +34°C° 0 mm 5 mps 738 mmHg 34%
    14:00 +35°C° 0 mm 5 mps 738 mmHg 32%
    15:00 +35°C° 0 mm 6 mps 737 mmHg 30%
    16:00 +34°C° 0 mm 6 mps 737 mmHg 34%
    17:00 +33°C° 0 mm 6 mps 737 mmHg 38%
    18:00 +30°C° 0 mm 6 mps 737 mmHg 43%
    19:00 +29°C° 0 mm 6 mps 737 mmHg 48%
    20:00 +28°C° 0 mm 5 mps 738 mmHg 54%
    21:00 +27°C° 0 mm 5 mps 738 mmHg 59%
    22:00 +27°C° 0 mm 4 mps 738 mmHg 62%
    23:00 +26°C° 0 mm 4 mps 738 mmHg 64%
    Mostrar más